Time,TemperatureF,DewpointF,PressureIn,WindDirection,WindDirectionDegrees,WindSpeedMPH,WindSpeedGustMPH,Humidity,HourlyPrecipIn,Conditions,Clouds,dailyrainin,SoftwareType,DateUTC
2013-01-21 00:00:00,28.0,-9.9,29.88,NNE,17,3.0,18.0,18,0.00,,,0.00,Weather View 32 v70,2013-01-21 05:00:00,
2013-01-21 00:05:00,28.0,-10.5,29.91,North,8,7.0,18.0,18,0.00,,,0.00,Weather View 32 v70,2013-01-21 05:05:00,
2013-01-21 00:10:00,28.0,-10.7,29.88,NNW,335,7.0,18.0,17,0.00,,,0.00,Weather View 32 v70,2013-01-21 05:10:00,
2013-01-21 00:15:00,27.7,-10.5,29.88,North,349,6.0,18.0,18,0.00,,,0.00,Weather View 32 v70,2013-01-21 05:15:00,
2013-01-21 00:20:00,27.5,-10.7,29.88,North,5,4.0,13.0,18,0.00,,,0.00,Weather View 32 v70,2013-01-21 05:20:00,
2013-01-21 00:25:00,27.7,-10.9,29.88,ENE,73,0.0,13.0,18,0.00,,,0.00,Weather View 32 v70,2013-01-21 05:25:00,
2013-01-21 00:30:00,27.5,-11.2,29.91,NNW,343,0.0,13.0,17,0.00,,,0.00,Weather View 32 v70,2013-01-21 05:30:00,
2013-01-21 00:40:00,27.3,-11.4,29.91,ESE,114,2.0,13.0,17,0.00,,,0.00,Weather View 32 v70,2013-01-21 05:40:00,
2013-01-21 00:45:00,27.5,-11.4,29.91,East,99,3.0,13.0,17,0.00,,,0.00,Weather View 32 v70,2013-01-21 05:45:00,
2013-01-21 00:50:00,27.3,-11.8,29.91,North,5,3.0,13.0,17,0.00,,,0.00,Weather View 32 v70,2013-01-21 05:50:00,
2013-01-21 00:55:00,27.1,-12.1,29.91,NE,49,2.0,13.0,17,0.00,,,0.00,Weather View 32 v70,2013-01-21 05:55:00,
2013-01-21 01:00:00,27.1,-12.8,29.91,WNW,298,4.0,13.0,16,0.00,,,0.00,Weather View 32 v70,2013-01-21 06:00:00,
2013-01-21 01:05:00,27.1,-12.5,29.91,ENE,73,1.0,13.0,17,0.00,,,0.00,Weather View 32 v70,2013-01-21 06:05:00,
2013-01-21 01:10:00,26.9,-13.5,29.91,North,349,2.0,11.0,16,0.00,,,0.00,Weather View 32 v70,2013-01-21 06:10:00,
2013-01-21 01:15:00,27.1,-13.1,29.88,NE,56,3.0,11.0,16,0.00,,,0.00,Weather View 32 v70,2013-01-21 06:15:00,
2013-01-21 01:20:00,26.9,-14.2,29.91,West,281,1.0,12.0,15,0.00,,,0.00,Weather View 32 v70,2013-01-21 06:20:00,
2013-01-21 01:25:00,26.8,-14.1,29.91,WNW,297,2.0,12.0,16,0.00,,,0.00,Weather View 32 v70,2013-01-21 06:25:00,
2013-01-21 01:30:00,26.8,-14.2,29.91,WNW,301,0.0,12.0,15,0.00,,,0.00,Weather View 32 v70,2013-01-21 06:30:00,
2013-01-21 01:35:00,26.8,-13.8,29.94,East,81,2.0,12.0,16,0.00,,,0.00,Weather View 32 v70,2013-01-21 06:35:00,
2013-01-21 01:40:00,26.4,-14.7,29.94,SSE,148,2.0,12.0,15,0.00,,,0.00,Weather View 32 v70,2013-01-21 06:40:00,
2013-01-21 01:45:00,26.8,-14.5,29.91,NNW,336,7.0,13.0,15,0.00,,,0.00,Weather View 32 v70,2013-01-21 06:45:00,
2013-01-21 01:50:00,26.8,-13.9,29.94,North,354,1.0,13.0,16,0.00,,,0.00,Weather View 32 v70,2013-01-21 06:50:00,
2013-01-21 01:55:00,26.8,-13.9,29.94,ENE,73,2.0,13.0,16,0.00,,,0.00,Weather View 32 v70,2013-01-21 06:55:00,
2013-01-21 02:00:00,26.6,-13.5,29.94,East,86,2.0,13.0,16,0.00,,,0.00,Weather View 32 v70,2013-01-21 07:00:00,
2013-01-21 02:05:00,26.4,-13.7,29.91,NNW,329,2.0,13.0,16,0.00,,,0.00,Weather View 32 v70,2013-01-21 07:05:00,
2013-01-21 02:10:00,26.6,-13.6,29.94,NE,42,4.0,13.0,16,0.00,,,0.00,Weather View 32 v70,2013-01-21 07:10:00,
2013-01-21 02:15:00,26.4,-13.4,29.94,ENE,66,2.0,13.0,16,0.00,,,0.00,Weather View 32 v70,2013-01-21 07:15:00,
2013-01-21 02:20:00,26.4,-13.1,29.94,ENE,62,2.0,13.0,17,0.00,,,0.00,Weather View 32 v70,2013-01-21 07:20:00,
2013-01-21 02:25:00,25.9,-13.6,29.91,NW,315,3.0,13.0,17,0.00,,,0.00,Weather View 32 v70,2013-01-21 07:25:00,
2013-01-21 02:30:00,26.2,-12.4,29.94,North,360,2.0,13.0,17,0.00,,,0.00,Weather View 32 v70,2013-01-21 07:30:00,
2013-01-21 02:35:00,26.4,-11.5,29.94,ENE,61,3.0,13.0,18,0.00,,,0.00,Weather View 32 v70,2013-01-21 07:35:00,
2013-01-21 02:40:00,25.9,-13.0,29.94,NE,35,5.0,13.0,17,0.00,,,0.00,Weather View 32 v70,2013-01-21 07:40:00,
2013-01-21 02:45:00,26.2,-12.4,29.91,NE,39,4.0,13.0,17,0.00,,,0.00,Weather View 32 v70,2013-01-21 07:45:00,
2013-01-21 02:50:00,25.7,-12.7,29.94,NE,40,3.0,8.0,17,0.00,,,0.00,Weather View 32 v70,2013-01-21 07:50:00,
2013-01-21 02:55:00,25.7,-11.0,29.94,NNW,337,6.0,10.0,19,0.00,,,0.00,Weather View 32 v70,2013-01-21 07:55:00,
2013-01-21 03:00:00,25.5,-10.6,29.94,NNW,348,6.0,10.0,19,0.00,,,0.00,Weather View 32 v70,2013-01-21 08:00:00,
2013-01-21 03:05:00,25.3,-9.6,29.94,North,8,2.0,10.0,21,0.00,,,0.00,Weather View 32 v70,2013-01-21 08:05:00,
2013-01-21 03:10:00,25.3,-9.2,29.94,NNW,339,5.0,10.0,21,0.00,,,0.00,Weather View 32 v70,2013-01-21 08:10:00,
2013-01-21 03:15:00,25.3,-9.2,29.94,NNW,336,3.0,10.0,21,0.00,,,0.00,Weather View 32 v70,2013-01-21 08:15:00,
2013-01-21 03:20:00,25.1,-9.6,29.97,NW,308,2.0,10.0,21,0.00,,,0.00,Weather View 32 v70,2013-01-21 08:20:00,
2013-01-21 03:25:00,25.1,-8.9,29.94,North,351,3.0,10.0,22,0.00,,,0.00,Weather View 32 v70,2013-01-21 08:25:00,
2013-01-21 03:30:00,24.8,-9.2,29.94,WNW,287,3.0,10.0,21,0.00,,,0.00,Weather View 32 v70,2013-01-21 08:30:00,
2013-01-21 03:35:00,25.1,-8.6,29.94,NNE,19,6.0,10.0,22,0.00,,,0.00,Weather View 32 v70,2013-01-21 08:35:00,
2013-01-21 03:40:00,24.8,-8.4,29.94,NW,324,3.0,10.0,22,0.00,,,0.00,Weather View 32 v70,2013-01-21 08:40:00,
2013-01-21 03:45:00,25.0,-8.7,29.97,NNW,334,3.0,10.0,22,0.00,,,0.00,Weather View 32 v70,2013-01-21 08:45:00,
2013-01-21 03:50:00,24.8,-8.5,29.97,NNE,20,2.0,10.0,22,0.00,,,0.00,Weather View 32 v70,2013-01-21 08:50:00,
2013-01-21 03:55:00,24.8,-8.8,29.97,NNE,13,2.0,10.0,22,0.00,,,0.00,Weather View 32 v70,2013-01-21 08:55:00,
2013-01-21 04:00:00,24.8,-8.5,29.94,NNE,22,4.0,10.0,22,0.00,,,0.00,Weather View 32 v70,2013-01-21 09:00:00,
2013-01-21 04:05:00,24.1,-8.5,29.97,NNW,344,3.0,9.0,23,0.00,,,0.00,Weather View 32 v70,2013-01-21 09:05:00,
2013-01-21 04:10:00,24.4,-8.1,29.97,NNE,20,2.0,9.0,23,0.00,,,0.00,Weather View 32 v70,2013-01-21 09:10:00,
2013-01-21 04:15:00,24.2,-8.9,29.97,NW,317,6.0,10.0,22,0.00,,,0.00,Weather View 32 v70,2013-01-21 09:15:00,
2013-01-21 04:20:00,24.2,-9.1,29.97,North,3,8.0,11.0,22,0.00,,,0.00,Weather View 32 v70,2013-01-21 09:20:00,
2013-01-21 04:25:00,24.2,-8.6,29.97,NNE,14,5.0,11.0,23,0.00,,,0.00,Weather View 32 v70,2013-01-21 09:25:00,
2013-01-21 04:30:00,24.4,-8.7,29.97,NNE,30,5.0,11.0,22,0.00,,,0.00,Weather View 32 v70,2013-01-21 09:30:00,
2013-01-21 04:35:00,24.2,-8.2,29.97,NNE,25,3.0,11.0,23,0.00,,,0.00,Weather View 32 v70,2013-01-21 09:35:00,
2013-01-21 04:40:00,24.2,-7.6,29.97,NNE,33,3.0,11.0,24,0.00,,,0.00,Weather View 32 v70,2013-01-21 09:40:00,
2013-01-21 04:45:00,23.9,-7.8,29.97,North,353,5.0,11.0,24,0.00,,,0.00,Weather View 32 v70,2013-01-21 09:45:00,
2013-01-21 04:50:00,23.7,-7.4,29.97,NNE,13,6.0,11.0,25,0.00,,,0.00,Weather View 32 v70,2013-01-21 09:50:00,
2013-01-21 04:55:00,23.7,-7.1,30.00,NNW,337,3.0,11.0,25,0.00,,,0.00,Weather View 32 v70,2013-01-21 09:55:00,
2013-01-21 05:00:00,23.5,-6.9,29.97,North,5,2.0,11.0,25,0.00,,,0.00,Weather View 32 v70,2013-01-21 10:00:00,
2013-01-21 05:05:00,23.3,-6.8,29.97,North,7,4.0,11.0,26,0.00,,,0.00,Weather View 32 v70,2013-01-21 10:05:00,
2013-01-21 05:10:00,22.8,-6.6,29.97,North,355,5.0,11.0,27,0.00,,,0.00,Weather View 32 v70,2013-01-21 10:10:00,
2013-01-21 05:15:00,22.6,-6.7,30.00,NNW,336,4.0,11.0,27,0.00,,,0.00,Weather View 32 v70,2013-01-21 10:15:00,
2013-01-21 05:20:00,22.8,-6.0,29.97,NNW,336,1.0,11.0,27,0.00,,,0.00,Weather View 32 v70,2013-01-21 10:20:00,
2013-01-21 05:25:00,22.8,-5.9,29.97,North,354,2.0,10.0,27,0.00,,,0.00,Weather View 32 v70,2013-01-21 10:25:00,
2013-01-21 05:30:00,22.6,-6.1,29.97,NNW,340,2.0,10.0,27,0.00,,,0.00,Weather View 32 v70,2013-01-21 10:30:00,
2013-01-21 05:35:00,22.6,-6.3,29.97,North,9,3.0,10.0,27,0.00,,,0.00,Weather View 32 v70,2013-01-21 10:35:00,
2013-01-21 05:40:00,22.8,-6.2,29.97,North,359,2.0,10.0,27,0.00,,,0.00,Weather View 32 v70,2013-01-21 10:40:00,
2013-01-21 05:45:00,22.6,-6.3,29.97,NE,54,1.0,10.0,27,0.00,,,0.00,Weather View 32 v70,2013-01-21 10:45:00,
2013-01-21 05:50:00,22.6,-6.7,29.97,North,7,1.0,10.0,27,0.00,,,0.00,Weather View 32 v70,2013-01-21 10:50:00,
2013-01-21 05:55:00,22.6,-6.7,30.00,NE,53,1.0,10.0,27,0.00,,,0.00,Weather View 32 v70,2013-01-21 10:55:00,
2013-01-21 06:00:00,22.6,-6.3,30.00,NNE,20,1.0,10.0,27,0.00,,,0.00,Weather View 32 v70,2013-01-21 11:00:00,
2013-01-21 06:05:00,22.6,-6.3,30.00,NE,54,2.0,13.0,27,0.00,,,0.00,Weather View 32 v70,2013-01-21 11:05:00,
2013-01-21 06:10:00,22.3,-6.1,30.00,ESE,122,2.0,13.0,28,0.00,,,0.00,Weather View 32 v70,2013-01-21 11:10:00,
2013-01-21 06:15:00,22.4,-6.2,30.00,East,84,2.0,13.0,27,0.00,,,0.00,Weather View 32 v70,2013-01-21 11:15:00,
2013-01-21 06:20:00,22.4,-6.1,30.00,East,80,2.0,13.0,28,0.00,,,0.00,Weather View 32 v70,2013-01-21 11:20:00,
2013-01-21 06:25:00,22.1,-6.4,30.00,ESE,108,3.0,13.0,28,0.00,,,0.00,Weather View 32 v70,2013-01-21 11:25:00,
2013-01-21 06:30:00,22.3,-6.1,30.00,East,96,1.0,13.0,28,0.00,,,0.00,Weather View 32 v70,2013-01-21 11:30:00,
2013-01-21 06:35:00,21.7,-6.6,30.00,East,93,2.0,13.0,28,0.00,,,0.00,Weather View 32 v70,2013-01-21 11:35:00,
2013-01-21 06:40:00,21.7,-6.2,29.97,East,98,3.0,13.0,28,0.00,,,0.00,Weather View 32 v70,2013-01-21 11:40:00,
2013-01-21 06:45:00,21.7,-6.5,29.97,ESE,110,3.0,13.0,28,0.00,,,0.00,Weather View 32 v70,2013-01-21 11:45:00,
2013-01-21 06:50:00,21.7,-5.7,30.00,ESE,113,2.0,13.0,29,0.00,,,0.00,Weather View 32 v70,2013-01-21 11:50:00,
2013-01-21 06:56:00,22.1,-5.9,30.00,East,97,1.0,13.0,28,0.00,,,0.00,Weather View 32 v70,2013-01-21 11:56:00,
2013-01-21 07:01:00,21.5,-6.5,30.00,ESE,107,2.0,13.0,28,0.00,,,0.00,Weather View 32 v70,2013-01-21 12:01:00,
2013-01-21 07:06:00,21.5,-5.8,30.00,ESE,111,2.0,4.0,29,0.00,,,0.00,Weather View 32 v70,2013-01-21 12:06:00,
2013-01-21 07:11:00,21.2,-6.3,30.00,SE,133,2.0,4.0,29,0.00,,,0.00,Weather View 32 v70,2013-01-21 12:11:00,
2013-01-21 07:16:00,21.4,-5.0,30.03,ESE,104,1.0,4.0,30,0.00,,,0.00,Weather View 32 v70,2013-01-21 12:16:00,
2013-01-21 07:21:00,21.2,-5.5,30.00,ESE,103,1.0,4.0,30,0.00,,,0.00,Weather View 32 v70,2013-01-21 12:21:00,
2013-01-21 07:26:00,21.4,-4.7,30.00,SE,126,2.0,4.0,31,0.00,,,0.00,Weather View 32 v70,2013-01-21 12:26:00,
2013-01-21 07:31:00,21.5,-4.6,30.00,ESE,116,2.0,3.0,31,0.00,,,0.00,Weather View 32 v70,2013-01-21 12:31:00,
2013-01-21 07:36:00,21.7,-3.9,30.00,SE,131,3.0,4.0,32,0.00,,,0.00,Weather View 32 v70,2013-01-21 12:36:00,
2013-01-21 07:41:00,21.7,-2.9,30.00,SE,126,4.0,4.0,33,0.00,,,0.00,Weather View 32 v70,2013-01-21 12:41:00,
2013-01-21 07:46:00,22.4,-2.7,30.06,SE,135,3.0,4.0,32,0.00,,,0.00,Weather View 32 v70,2013-01-21 12:46:00,
2013-01-21 07:51:00,22.6,-1.6,30.03,SE,124,2.0,4.0,34,0.00,,,0.00,Weather View 32 v70,2013-01-21 12:51:00,
2013-01-21 07:56:00,23.3,-2.6,30.00,ESE,119,1.0,4.0,31,0.00,,,0.00,Weather View 32 v70,2013-01-21 12:56:00,
2013-01-21 08:01:00,24.4,-2.7,30.00,SE,138,2.0,4.0,30,0.00,,,0.00,Weather View 32 v70,2013-01-21 13:01:00,
2013-01-21 08:06:00,24.4,-4.3,29.97,SE,136,2.0,4.0,28,0.00,,,0.00,Weather View 32 v70,2013-01-21 13:06:00,
2013-01-21 08:11:00,26.2,-2.2,30.00,ENE,65,1.0,4.0,28,0.00,,,0.00,Weather View 32 v70,2013-01-21 13:11:00,
2013-01-21 08:16:00,25.9,-5.6,30.00,ENE,75,1.0,4.0,24,0.00,,,0.00,Weather View 32 v70,2013-01-21 13:16:00,
2013-01-21 08:21:00,28.6,-4.0,30.00,ENE,77,2.0,4.0,24,0.00,,,0.00,Weather View 32 v70,2013-01-21 13:21:00,
2013-01-21 08:26:00,28.7,-7.7,30.00,East,93,2.0,4.0,20,0.00,,,0.00,Weather View 32 v70,2013-01-21 13:26:00,
2013-01-21 08:31:00,27.3,-9.0,30.00,ENE,59,2.0,4.0,20,0.00,,,0.00,Weather View 32 v70,2013-01-21 13:31:00,
2013-01-21 08:36:00,27.5,-7.8,30.00,East,88,3.0,4.0,21,0.00,,,0.00,Weather View 32 v70,2013-01-21 13:36:00,
2013-01-21 08:41:00,29.1,-5.8,30.00,East,91,4.0,5.0,21,0.00,,,0.00,Weather View 32 v70,2013-01-21 13:41:00,
2013-01-21 08:46:00,28.7,-6.9,30.03,East,90,3.0,7.0,20,0.00,,,0.00,Weather View 32 v70,2013-01-21 13:46:00,
2013-01-21 08:51:00,29.1,-6.3,30.00,East,88,2.0,7.0,21,0.00,,,0.00,Weather View 32 v70,2013-01-21 13:51:00,
2013-01-21 08:56:00,29.6,-8.7,30.00,ESE,107,3.0,7.0,18,0.00,,,0.00,Weather View 32 v70,2013-01-21 13:56:00,
2013-01-21 09:01:00,29.5,-9.9,30.03,East,81,3.0,8.0,17,0.00,,,0.00,Weather View 32 v70,2013-01-21 14:01:00,
2013-01-21 09:06:00,27.7,-11.6,30.03,ENE,63,2.0,8.0,17,0.00,,,0.00,Weather View 32 v70,2013-01-21 14:06:00,
2013-01-21 09:11:00,26.8,-11.1,30.00,ESE,119,2.0,8.0,18,0.00,,,0.00,Weather View 32 v70,2013-01-21 14:11:00,
2013-01-21 09:16:00,28.4,-10.1,30.03,ENE,68,2.0,8.0,18,0.00,,,0.00,Weather View 32 v70,2013-01-21 14:16:00,
2013-01-21 09:21:00,29.8,-10.3,30.00,East,81,4.0,8.0,17,0.00,,,0.00,Weather View 32 v70,2013-01-21 14:21:00,
2013-01-21 09:26:00,27.3,-13.6,30.00,NE,50,2.0,8.0,16,0.00,,,0.00,Weather View 32 v70,2013-01-21 14:26:00,
2013-01-21 09:31:00,27.3,-13.2,30.00,NNE,22,3.0,8.0,16,0.00,,,0.00,Weather View 32 v70,2013-01-21 14:31:00,
2013-01-21 09:36:00,26.8,-14.3,30.00,ENE,72,2.0,8.0,15,0.00,,,0.00,Weather View 32 v70,2013-01-21 14:36:00,
2013-01-21 09:41:00,26.9,-14.4,30.00,NE,56,3.0,8.0,15,0.00,,,0.00,Weather View 32 v70,2013-01-21 14:41:00,
2013-01-21 09:46:00,28.6,-11.2,30.00,East,80,5.0,8.0,17,0.00,,,0.00,Weather View 32 v70,2013-01-21 14:46:00,
2013-01-21 09:51:00,28.2,-12.1,30.00,ESE,104,15.0,15.0,16,0.00,,,0.00,Weather View 32 v70,2013-01-21 14:51:00,
2013-01-21 09:57:00,28.4,-12.4,30.00,East,99,9.0,17.0,16,0.00,,,0.00,Weather View 32 v70,2013-01-21 14:57:00,
2013-01-21 10:02:00,28.2,-12.6,30.00,SE,124,6.0,17.0,16,0.00,,,0.00,Weather View 32 v70,2013-01-21 15:02:00,
2013-01-21 10:07:00,28.4,-11.9,30.00,SE,128,11.0,17.0,16,0.00,,,0.00,Weather View 32 v70,2013-01-21 15:07:00,
2013-01-21 10:12:00,28.6,-12.7,30.00,SSE,155,8.0,17.0,15,0.00,,,0.00,Weather View 32 v70,2013-01-21 15:12:00,
2013-01-21 10:17:00,26.8,-11.9,30.00,SSE,153,7.0,17.0,17,0.00,,,0.00,Weather View 32 v70,2013-01-21 15:17:00,
2013-01-21 10:22:00,26.6,-13.0,30.00,SSE,151,9.0,17.0,17,0.00,,,0.00,Weather View 32 v70,2013-01-21 15:22:00,
2013-01-21 10:27:00,27.3,-11.1,30.00,SE,140,12.0,17.0,18,0.00,,,0.00,Weather View 32 v70,2013-01-21 15:27:00,
2013-01-21 10:32:00,30.0,-11.0,30.00,ESE,122,12.0,17.0,16,0.00,,,0.00,Weather View 32 v70,2013-01-21 15:32:00,
2013-01-21 10:37:00,30.5,-10.3,30.00,ESE,113,11.0,18.0,16,0.00,,,0.00,Weather View 32 v70,2013-01-21 15:37:00,
2013-01-21 10:42:00,27.5,-15.6,30.00,SE,132,5.0,18.0,14,0.00,,,0.00,Weather View 32 v70,2013-01-21 15:42:00,
2013-01-21 10:47:00,29.6,-8.7,30.00,SE,126,15.0,18.0,18,0.00,,,0.00,Weather View 32 v70,2013-01-21 15:47:00,
2013-01-21 10:52:00,29.8,-12.4,30.00,SE,142,6.0,18.0,15,0.00,,,0.00,Weather View 32 v70,2013-01-21 15:52:00,
2013-01-21 10:57:00,29.6,-13.7,30.00,SSE,163,2.0,18.0,14,0.00,,,0.00,Weather View 32 v70,2013-01-21 15:57:00,
2013-01-21 11:02:00,26.4,-13.7,29.97,East,93,17.0,18.0,16,0.00,,,0.00,Weather View 32 v70,2013-01-21 16:02:00,
2013-01-21 11:07:00,26.6,-10.4,29.97,SSW,196,3.0,21.0,19,0.00,,,0.00,Weather View 32 v70,2013-01-21 16:07:00,
2013-01-21 11:12:00,28.6,-6.9,29.97,NE,51,2.0,21.0,21,0.00,,,0.00,Weather View 32 v70,2013-01-21 16:12:00,
2013-01-21 11:17:00,27.5,-13.5,29.97,WSW,253,1.0,21.0,16,0.00,,,0.00,Weather View 32 v70,2013-01-21 16:17:00,
2013-01-21 11:22:00,29.1,-11.3,29.97,NE,34,2.0,21.0,16,0.00,,,0.00,Weather View 32 v70,2013-01-21 16:22:00,
2013-01-21 11:27:00,29.1,-13.4,29.97,ENE,62,2.0,21.0,15,0.00,,,0.00,Weather View 32 v70,2013-01-21 16:27:00,
2013-01-21 11:32:00,29.1,-9.8,30.00,East,97,1.0,21.0,17,0.00,,,0.00,Weather View 32 v70,2013-01-21 16:32:00,
2013-01-21 11:37:00,27.5,-13.0,30.00,NNE,27,1.0,21.0,16,0.00,,,0.00,Weather View 32 v70,2013-01-21 16:37:00,
2013-01-21 11:42:00,30.4,-11.7,29.97,East,86,3.0,21.0,15,0.00,,,0.00,Weather View 32 v70,2013-01-21 16:42:00,
2013-01-21 11:47:00,29.1,-12.4,29.94,East,89,5.0,21.0,15,0.00,,,0.00,Weather View 32 v70,2013-01-21 16:47:00,
2013-01-21 11:52:00,30.5,-11.2,29.94,ENE,69,5.0,21.0,15,0.00,,,0.00,Weather View 32 v70,2013-01-21 16:52:00,
2013-01-21 11:57:00,31.1,-12.4,29.94,ENE,61,3.0,21.0,14,0.00,,,0.00,Weather View 32 v70,2013-01-21 16:57:00,
2013-01-21 12:02:00,30.0,-14.5,29.94,ENE,76,1.0,21.0,13,0.00,,,0.00,Weather View 32 v70,2013-01-21 17:02:00,
2013-01-21 12:07:00,26.9,-12.9,29.94,SSW,206,3.0,6.0,16,0.00,,,0.00,Weather View 32 v70,2013-01-21 17:07:00,
2013-01-21 12:12:00,30.2,-9.4,29.97,East,82,3.0,6.0,17,0.00,,,0.00,Weather View 32 v70,2013-01-21 17:12:00,
2013-01-21 12:17:00,30.7,-10.2,29.94,East,82,4.0,7.0,16,0.00,,,0.00,Weather View 32 v70,2013-01-21 17:17:00,
2013-01-21 12:22:00,30.7,-11.8,29.94,ESE,121,3.0,7.0,15,0.00,,,0.00,Weather View 32 v70,2013-01-21 17:22:00,
2013-01-21 12:28:00,31.8,-8.1,29.94,East,81,4.0,7.0,17,0.00,,,0.00,Weather View 32 v70,2013-01-21 17:28:00,
2013-01-21 12:33:00,29.1,-10.4,29.91,ESE,103,9.0,9.0,17,0.00,,,0.00,Weather View 32 v70,2013-01-21 17:33:00,
2013-01-21 12:38:00,28.9,-9.1,29.91,ESE,107,5.0,9.0,18,0.00,,,0.00,Weather View 32 v70,2013-01-21 17:38:00,
2013-01-21 12:43:00,28.6,-9.3,29.91,ESE,106,5.0,9.0,18,0.00,,,0.00,Weather View 32 v70,2013-01-21 17:43:00,
2013-01-21 12:48:00,28.7,-9.1,29.91,ESE,112,2.0,9.0,18,0.00,,,0.00,Weather View 32 v70,2013-01-21 17:48:00,
2013-01-21 12:53:00,29.3,-8.9,29.91,ENE,74,2.0,9.0,18,0.00,,,0.00,Weather View 32 v70,2013-01-21 17:53:00,
2013-01-21 12:58:00,30.7,-10.8,29.91,ENE,75,2.0,9.0,16,0.00,,,0.00,Weather View 32 v70,2013-01-21 17:58:00,
2013-01-21 13:03:00,31.1,-11.9,29.91,ENE,73,1.0,9.0,15,0.00,,,0.00,Weather View 32 v70,2013-01-21 18:03:00,
2013-01-21 13:08:00,31.1,-10.3,29.91,East,86,2.0,9.0,16,0.00,,,0.00,Weather View 32 v70,2013-01-21 18:08:00,
2013-01-21 13:13:00,30.9,-10.3,29.91,East,93,2.0,9.0,16,0.00,,,0.00,Weather View 32 v70,2013-01-21 18:13:00,
2013-01-21 13:18:00,31.4,-11.9,29.91,East,100,2.0,9.0,14,0.00,,,0.00,Weather View 32 v70,2013-01-21 18:18:00,
2013-01-21 13:23:00,30.0,-13.6,29.91,West,274,1.0,9.0,14,0.00,,,0.00,Weather View 32 v70,2013-01-21 18:23:00,
2013-01-21 13:28:00,28.9,-11.7,29.94,NE,46,1.0,9.0,16,0.00,,,0.00,Weather View 32 v70,2013-01-21 18:28:00,
2013-01-21 13:33:00,30.2,-11.8,29.94,SE,146,1.0,9.0,15,0.00,,,0.00,Weather View 32 v70,2013-01-21 18:33:00,
2013-01-21 13:38:00,31.3,-11.2,29.88,ESE,112,4.0,8.0,15,0.00,,,0.00,Weather View 32 v70,2013-01-21 18:38:00,
2013-01-21 13:43:00,30.9,-14.7,29.88,East,90,1.0,7.0,13,0.00,,,0.00,Weather View 32 v70,2013-01-21 18:43:00,
2013-01-21 13:48:00,30.2,-12.3,29.88,East,95,2.0,6.0,15,0.00,,,0.00,Weather View 32 v70,2013-01-21 18:48:00,
2013-01-21 13:53:00,30.4,-12.6,29.88,ESE,108,6.0,6.0,14,0.00,,,0.00,Weather View 32 v70,2013-01-21 18:53:00,
2013-01-21 13:58:00,30.0,-12.1,29.88,East,98,6.0,7.0,15,0.00,,,0.00,Weather View 32 v70,2013-01-21 18:58:00,
2013-01-21 14:03:00,28.9,-11.7,29.88,ESE,110,2.0,8.0,16,0.00,,,0.00,Weather View 32 v70,2013-01-21 19:03:00,
2013-01-21 14:08:00,29.1,-10.9,29.88,ESE,119,5.0,8.0,17,0.00,,,0.00,Weather View 32 v70,2013-01-21 19:08:00,
2013-01-21 14:13:00,30.4,-8.3,29.88,SE,134,4.0,8.0,18,0.00,,,0.00,Weather View 32 v70,2013-01-21 19:13:00,
2013-01-21 14:18:00,30.2,-10.8,29.88,ESE,112,2.0,8.0,16,0.00,,,0.00,Weather View 32 v70,2013-01-21 19:18:00,
2013-01-21 14:23:00,30.5,-9.0,29.86,ESE,105,4.0,8.0,17,0.00,,,0.00,Weather View 32 v70,2013-01-21 19:23:00,
2013-01-21 14:28:00,30.5,-7.8,29.88,ENE,73,3.0,8.0,18,0.00,,,0.00,Weather View 32 v70,2013-01-21 19:28:00,
2013-01-21 14:33:00,29.3,-7.4,29.88,SE,131,2.0,8.0,20,0.00,,,0.00,Weather View 32 v70,2013-01-21 19:33:00,
2013-01-21 14:38:00,28.9,-5.9,29.88,South,172,9.0,11.0,21,0.00,,,0.00,Weather View 32 v70,2013-01-21 19:38:00,
2013-01-21 14:43:00,28.6,-5.1,29.88,South,174,12.0,19.0,22,0.00,,,0.00,Weather View 32 v70,2013-01-21 19:43:00,
2013-01-21 14:48:00,28.4,-4.2,29.88,South,172,11.0,21.0,24,0.00,,,0.00,Weather View 32 v70,2013-01-21 19:48:00,
2013-01-21 14:53:00,28.0,-3.7,29.88,South,178,15.0,21.0,25,0.00,,,0.00,Weather View 32 v70,2013-01-21 19:53:00,
2013-01-21 14:58:00,28.7,-2.4,29.88,South,173,9.0,23.0,25,0.00,,,0.00,Weather View 32 v70,2013-01-21 19:58:00,
2013-01-21 15:03:00,28.0,-2.1,29.88,SSE,167,12.0,23.0,27,0.00,,,0.00,Weather View 32 v70,2013-01-21 20:03:00,
2013-01-21 15:08:00,28.0,-0.9,29.88,South,170,12.0,23.0,28,0.00,,,0.00,Weather View 32 v70,2013-01-21 20:08:00,
2013-01-21 15:13:00,27.5,-0.2,29.88,South,178,16.0,23.0,30,0.00,,,0.00,Weather View 32 v70,2013-01-21 20:13:00,
2013-01-21 15:18:00,28.0,0.3,29.88,SSE,160,14.0,23.0,30,0.00,,,0.00,Weather View 32 v70,2013-01-21 20:18:00,
2013-01-21 15:23:00,27.7,0.2,29.88,South,171,11.0,23.0,30,0.00,,,0.00,Weather View 32 v70,2013-01-21 20:23:00,
2013-01-21 15:28:00,28.2,0.9,29.86,SSE,153,9.0,23.0,30,0.00,,,0.00,Weather View 32 v70,2013-01-21 20:28:00,
2013-01-21 15:33:00,28.4,1.1,29.88,SSE,157,11.0,23.0,30,0.00,,,0.00,Weather View 32 v70,2013-01-21 20:33:00,
2013-01-21 15:38:00,28.7,0.2,29.83,SE,141,11.0,23.0,29,0.00,,,0.00,Weather View 32 v70,2013-01-21 20:38:00,
2013-01-21 15:43:00,27.1,1.5,29.88,South,172,14.0,23.0,33,0.00,,,0.00,Weather View 32 v70,2013-01-21 20:43:00,
2013-01-21 15:48:00,27.3,1.6,29.83,South,172,13.0,23.0,32,0.00,,,0.00,Weather View 32 v70,2013-01-21 20:48:00,
2013-01-21 15:53:00,27.5,2.9,29.83,SSE,157,10.0,23.0,34,0.00,,,0.00,Weather View 32 v70,2013-01-21 20:53:00,
2013-01-21 15:58:00,27.1,4.8,29.83,SSE,157,13.0,22.0,38,0.00,,,0.00,Weather View 32 v70,2013-01-21 20:58:00,
2013-01-21 16:03:00,26.9,5.8,29.83,SSE,168,10.0,22.0,40,0.00,,,0.00,Weather View 32 v70,2013-01-21 21:03:00,
2013-01-21 16:08:00,27.7,6.5,29.83,SE,126,15.0,22.0,40,0.00,,,0.00,Weather View 32 v70,2013-01-21 21:08:00,
2013-01-21 16:13:00,27.1,5.8,29.86,SSE,147,11.0,22.0,40,0.00,,,0.00,Weather View 32 v70,2013-01-21 21:13:00,
2013-01-21 16:18:00,28.4,6.7,29.83,SE,125,15.0,22.0,39,0.00,,,0.00,Weather View 32 v70,2013-01-21 21:18:00,
2013-01-21 16:23:00,27.7,7.7,29.83,SE,136,11.0,22.0,42,0.00,,,0.00,Weather View 32 v70,2013-01-21 21:23:00,
2013-01-21 16:28:00,27.5,7.6,29.83,SE,133,17.0,23.0,43,0.00,,,0.00,Weather View 32 v70,2013-01-21 21:28:00,
2013-01-21 16:33:00,27.3,7.8,29.83,SE,130,17.0,23.0,43,0.00,,,0.00,Weather View 32 v70,2013-01-21 21:33:00,
2013-01-21 16:38:00,26.9,8.4,29.80,SSE,152,10.0,23.0,45,0.00,,,0.00,Weather View 32 v70,2013-01-21 21:38:00,
2013-01-21 16:43:00,27.1,9.2,29.83,SE,144,9.0,23.0,46,0.00,,,0.00,Weather View 32 v70,2013-01-21 21:43:00,
2013-01-21 16:48:00,28.9,12.5,29.80,SE,126,13.0,23.0,50,0.00,,,0.00,Weather View 32 v70,2013-01-21 21:48:00,
2013-01-21 16:53:00,27.3,9.4,29.83,SE,135,12.0,23.0,46,0.00,,,0.00,Weather View 32 v70,2013-01-21 21:53:00,
2013-01-21 16:58:00,27.7,10.2,29.80,SE,127,13.0,23.0,47,0.00,,,0.00,Weather View 32 v70,2013-01-21 21:58:00,
2013-01-21 17:03:00,28.0,10.7,29.80,ESE,119,11.0,23.0,48,0.00,,,0.00,Weather View 32 v70,2013-01-21 22:03:00,
2013-01-21 17:10:00,27.7,10.7,29.83,ESE,114,12.0,23.0,48,0.00,,,0.00,Weather View 32 v70,2013-01-21 22:10:00,
2013-01-21 17:20:00,27.7,10.9,29.80,SE,129,14.0,23.0,49,0.00,,,0.00,Weather View 32 v70,2013-01-21 22:20:00,
2013-01-21 17:25:00,28.2,11.9,29.77,ESE,117,9.0,23.0,50,0.00,,,0.00,Weather View 32 v70,2013-01-21 22:25:00,
2013-01-21 17:30:00,28.2,11.1,29.80,ESE,123,13.0,18.0,48,0.00,,,0.00,Weather View 32 v70,2013-01-21 22:30:00,
2013-01-21 17:35:00,28.0,11.6,29.80,ESE,120,11.0,18.0,50,0.00,,,0.00,Weather View 32 v70,2013-01-21 22:35:00,
2013-01-21 17:40:00,28.6,12.0,29.80,ESE,123,11.0,18.0,49,0.00,,,0.00,Weather View 32 v70,2013-01-21 22:40:00,
2013-01-21 17:45:00,28.9,11.6,29.83,SE,124,12.0,17.0,48,0.00,,,0.00,Weather View 32 v70,2013-01-21 22:45:00,
2013-01-21 17:50:00,28.9,11.6,29.86,ESE,120,11.0,17.0,48,0.00,,,0.00,Weather View 32 v70,2013-01-21 22:50:00,
2013-01-21 17:55:00,28.6,11.1,29.83,ESE,123,14.0,17.0,48,0.00,,,0.00,Weather View 32 v70,2013-01-21 22:55:00,
2013-01-21 18:00:00,28.2,11.5,29.80,SE,124,14.0,17.0,49,0.00,,,0.00,Weather View 32 v70,2013-01-21 23:00:00,
2013-01-21 18:05:00,28.4,12.1,29.80,SE,124,14.0,17.0,50,0.00,,,0.00,Weather View 32 v70,2013-01-21 23:05:00,
2013-01-21 18:10:00,27.7,12.1,29.80,ESE,120,12.0,17.0,52,0.00,,,0.00,Weather View 32 v70,2013-01-21 23:10:00,
2013-01-21 18:15:00,28.2,12.5,29.80,ESE,117,11.0,17.0,51,0.00,,,0.00,Weather View 32 v70,2013-01-21 23:15:00,
2013-01-21 18:20:00,27.3,12.2,29.80,ESE,122,14.0,17.0,52,0.00,,,0.00,Weather View 32 v70,2013-01-21 23:20:00,
2013-01-21 18:25:00,27.1,12.6,29.83,ESE,115,13.0,17.0,54,0.00,,,0.00,Weather View 32 v70,2013-01-21 23:25:00,
2013-01-21 18:30:00,27.5,13.0,29.83,ESE,111,11.0,17.0,54,0.00,,,0.00,Weather View 32 v70,2013-01-21 23:30:00,
2013-01-21 18:35:00,27.5,12.9,29.80,ESE,114,13.0,17.0,54,0.00,,,0.00,Weather View 32 v70,2013-01-21 23:35:00,
2013-01-21 18:40:00,27.3,12.9,29.80,ESE,112,14.0,17.0,54,0.00,,,0.00,Weather View 32 v70,2013-01-21 23:40:00,
2013-01-21 18:45:00,27.3,13.0,29.80,ESE,118,12.0,17.0,55,0.00,,,0.00,Weather View 32 v70,2013-01-21 23:45:00,
2013-01-21 18:50:00,27.5,13.4,29.80,ESE,117,11.0,17.0,55,0.00,,,0.00,Weather View 32 v70,2013-01-21 23:50:00,
2013-01-21 18:55:00,27.3,13.5,29.80,ESE,123,12.0,17.0,56,0.00,,,0.00,Weather View 32 v70,2013-01-21 23:55:00,
2013-01-21 19:00:00,27.3,13.3,29.80,ESE,121,13.0,17.0,55,0.00,,,0.00,Weather View 32 v70,2013-01-22 00:00:00,
2013-01-21 19:05:00,28.2,14.2,29.80,SE,125,12.0,17.0,55,0.00,,,0.00,Weather View 32 v70,2013-01-22 00:05:00,
2013-01-21 19:10:00,27.1,13.3,29.80,ESE,123,14.0,16.0,56,0.00,,,0.00,Weather View 32 v70,2013-01-22 00:10:00,
2013-01-21 19:15:00,28.2,14.5,29.80,ESE,116,8.0,16.0,56,0.00,,,0.00,Weather View 32 v70,2013-01-22 00:15:00,
2013-01-21 19:20:00,28.4,13.4,29.77,ESE,121,8.0,16.0,53,0.00,,,0.00,Weather View 32 v70,2013-01-22 00:20:00,
2013-01-21 19:25:00,28.6,13.0,29.77,ESE,117,8.0,16.0,52,0.00,,,0.00,Weather View 32 v70,2013-01-22 00:25:00,
2013-01-21 19:30:00,28.4,12.4,29.83,ESE,116,7.0,15.0,51,0.00,,,0.00,Weather View 32 v70,2013-01-22 00:30:00,
2013-01-21 19:35:00,28.4,12.5,29.80,ESE,120,8.0,15.0,51,0.00,,,0.00,Weather View 32 v70,2013-01-22 00:35:00,
2013-01-21 19:40:00,28.6,12.6,29.80,SE,124,9.0,15.0,51,0.00,,,0.00,Weather View 32 v70,2013-01-22 00:40:00,
2013-01-21 19:45:00,28.6,12.4,29.74,ESE,117,8.0,15.0,50,0.00,,,0.00,Weather View 32 v70,2013-01-22 00:45:00,
2013-01-21 19:50:00,28.4,12.5,29.80,SE,129,11.0,15.0,51,0.00,,,0.00,Weather View 32 v70,2013-01-22 00:50:00,
2013-01-21 19:55:00,28.2,12.2,29.83,SE,134,9.0,15.0,51,0.00,,,0.00,Weather View 32 v70,2013-01-22 00:55:00,
2013-01-21 20:00:00,28.7,12.9,29.77,SE,130,9.0,15.0,51,0.00,,,0.00,Weather View 32 v70,2013-01-22 01:00:00,
2013-01-21 20:05:00,28.4,12.1,29.80,SE,131,10.0,15.0,50,0.00,,,0.00,Weather View 32 v70,2013-01-22 01:05:00,
2013-01-21 20:10:00,28.9,12.2,29.80,SE,124,11.0,15.0,49,0.00,,,0.00,Weather View 32 v70,2013-01-22 01:10:00,
2013-01-21 20:15:00,28.7,12.2,29.80,SE,124,9.0,13.0,50,0.00,,,0.00,Weather View 32 v70,2013-01-22 01:15:00,
2013-01-21 20:20:00,28.9,12.2,29.77,ESE,122,10.0,13.0,49,0.00,,,0.00,Weather View 32 v70,2013-01-22 01:20:00,
2013-01-21 20:25:00,28.6,11.9,29.77,SE,132,9.0,13.0,49,0.00,,,0.00,Weather View 32 v70,2013-01-22 01:25:00,
2013-01-21 20:30:00,28.4,12.1,29.77,ESE,118,9.0,13.0,50,0.00,,,0.00,Weather View 32 v70,2013-01-22 01:30:00,
2013-01-21 20:35:00,28.2,12.0,29.77,SE,125,10.0,13.0,50,0.00,,,0.00,Weather View 32 v70,2013-01-22 01:35:00,
2013-01-21 20:40:00,28.6,12.5,29.77,SE,130,9.0,13.0,51,0.00,,,0.00,Weather View 32 v70,2013-01-22 01:40:00,
2013-01-21 20:45:00,28.4,12.2,29.77,SE,133,9.0,13.0,50,0.00,,,0.00,Weather View 32 v70,2013-01-22 01:45:00,
2013-01-21 20:50:00,28.6,12.2,29.77,SE,131,8.0,13.0,50,0.00,,,0.00,Weather View 32 v70,2013-01-22 01:50:00,
2013-01-21 20:55:00,28.4,11.8,29.77,SE,142,9.0,13.0,49,0.00,,,0.00,Weather View 32 v70,2013-01-22 01:55:00,
2013-01-21 21:00:00,28.7,12.3,29.77,SE,139,8.0,13.0,50,0.00,,,0.00,Weather View 32 v70,2013-01-22 02:00:00,
2013-01-21 21:05:00,28.7,12.1,29.77,SE,142,7.0,13.0,49,0.00,,,0.00,Weather View 32 v70,2013-01-22 02:05:00,
2013-01-21 21:10:00,29.1,12.3,29.77,SE,137,8.0,13.0,49,0.00,,,0.00,Weather View 32 v70,2013-01-22 02:10:00,
2013-01-21 21:15:00,28.9,12.1,29.77,SE,134,13.0,13.0,49,0.00,,,0.00,Weather View 32 v70,2013-01-22 02:15:00,
2013-01-21 21:20:00,28.7,12.4,29.77,SE,131,13.0,14.0,50,0.00,,,0.00,Weather View 32 v70,2013-01-22 02:20:00,
2013-01-21 21:25:00,28.9,12.8,29.77,SE,136,8.0,14.0,51,0.00,,,0.00,Weather View 32 v70,2013-01-22 02:25:00,
2013-01-21 21:30:00,28.9,12.4,29.77,SE,128,9.0,14.0,50,0.00,,,0.00,Weather View 32 v70,2013-01-22 02:30:00,
2013-01-21 21:35:00,28.7,12.0,29.74,SE,127,9.0,14.0,49,0.00,,,0.00,Weather View 32 v70,2013-01-22 02:35:00,
2013-01-21 21:40:00,28.2,11.4,29.77,SE,134,8.0,14.0,49,0.00,,,0.00,Weather View 32 v70,2013-01-22 02:40:00,
2013-01-21 21:45:00,28.4,11.8,29.74,SE,129,8.0,14.0,49,0.00,,,0.00,Weather View 32 v70,2013-01-22 02:45:00,
2013-01-21 21:50:00,27.3,11.4,29.74,SE,126,8.0,14.0,51,0.00,,,0.00,Weather View 32 v70,2013-01-22 02:50:00,
2013-01-21 21:55:00,27.1,11.5,29.74,ESE,121,7.0,14.0,51,0.00,,,0.00,Weather View 32 v70,2013-01-22 02:55:00,
2013-01-21 22:00:00,26.9,11.3,29.74,ESE,120,7.0,14.0,51,0.00,,,0.00,Weather View 32 v70,2013-01-22 03:00:00,
2013-01-21 22:05:00,27.1,11.8,29.74,ESE,122,8.0,14.0,52,0.00,,,0.00,Weather View 32 v70,2013-01-22 03:05:00,
2013-01-21 22:10:00,26.8,11.3,29.74,SE,127,8.0,14.0,52,0.00,,,0.00,Weather View 32 v70,2013-01-22 03:10:00,
2013-01-21 22:15:00,26.6,11.1,29.74,SE,126,7.0,14.0,52,0.00,,,0.00,Weather View 32 v70,2013-01-22 03:15:00,
2013-01-21 22:20:00,26.2,10.7,29.74,SE,125,5.0,14.0,51,0.00,,,0.00,Weather View 32 v70,2013-01-22 03:20:00,
2013-01-21 22:25:00,26.8,11.6,29.74,ESE,122,10.0,13.0,52,0.00,,,0.00,Weather View 32 v70,2013-01-22 03:25:00,
2013-01-21 22:30:00,26.9,11.6,29.77,SE,129,11.0,13.0,52,0.00,,,0.00,Weather View 32 v70,2013-01-22 03:30:00,
2013-01-21 22:35:00,26.8,11.0,29.74,ESE,120,8.0,13.0,51,0.00,,,0.00,Weather View 32 v70,2013-01-22 03:35:00,
2013-01-21 22:40:00,26.9,11.5,29.74,ESE,121,11.0,13.0,52,0.00,,,0.00,Weather View 32 v70,2013-01-22 03:40:00,
2013-01-21 22:45:00,27.7,12.1,29.77,SE,130,10.0,13.0,51,0.00,,,0.00,Weather View 32 v70,2013-01-22 03:45:00,
2013-01-21 22:50:00,27.7,11.7,29.77,SE,136,8.0,13.0,51,0.00,,,0.00,Weather View 32 v70,2013-01-22 03:50:00,
2013-01-21 22:55:00,27.7,11.4,29.71,ESE,123,8.0,13.0,50,0.00,,,0.00,Weather View 32 v70,2013-01-22 03:55:00,
2013-01-21 23:00:00,28.0,11.4,29.71,SE,128,10.0,13.0,49,0.00,,,0.00,Weather View 32 v70,2013-01-22 04:00:00,
2013-01-21 23:05:00,28.2,11.5,29.74,SE,127,9.0,13.0,49,0.00,,,0.00,Weather View 32 v70,2013-01-22 04:05:00,
2013-01-21 23:10:00,27.5,10.7,29.71,SE,131,8.0,13.0,49,0.00,,,0.00,Weather View 32 v70,2013-01-22 04:10:00,
2013-01-21 23:15:00,26.9,10.5,29.71,SE,130,7.0,13.0,49,0.00,,,0.00,Weather View 32 v70,2013-01-22 04:15:00,
2013-01-21 23:20:00,26.8,10.8,29.71,SE,130,6.0,13.0,50,0.00,,,0.00,Weather View 32 v70,2013-01-22 04:20:00,
2013-01-21 23:25:00,27.1,11.2,29.71,SE,129,8.0,13.0,51,0.00,,,0.00,Weather View 32 v70,2013-01-22 04:25:00,
2013-01-21 23:30:00,27.7,11.4,29.71,SE,133,11.0,13.0,50,0.00,,,0.00,Weather View 32 v70,2013-01-22 04:30:00,
2013-01-21 23:35:00,28.6,12.1,29.71,SE,136,10.0,13.0,50,0.00,,,0.00,Weather View 32 v70,2013-01-22 04:35:00,
2013-01-21 23:40:00,28.2,11.2,29.68,SE,127,13.0,13.0,48,0.00,,,0.00,Weather View 32 v70,2013-01-22 04:40:00,
2013-01-21 23:45:00,26.8,11.4,29.68,SE,140,11.0,15.0,52,0.00,,,0.00,Weather View 32 v70,2013-01-22 04:45:00,
2013-01-21 23:50:00,26.4,11.3,29.68,SE,134,15.0,16.0,52,0.00,,,0.00,Weather View 32 v70,2013-01-22 04:50:00,
2013-01-21 23:55:00,27.1,12.3,29.68,SE,136,12.0,16.0,53,0.00,,,0.00,Weather View 32 v70,2013-01-22 04:55:00,